N171PC KDPA-KGRR

Flight info

Callsign N171PC
Flight time 0h 27m
Altitude 15000
Route OBK WURKO
Aircraft C750/M-VGDW/C

Departure

Time 2026-05-05 00:31
Airport Dupage Airport (KDPA)

Arrival

Time 2026-05-05 00:58
Airport Gerald R. Ford International Airport (KGRR)
Time Latitude Longitude Altitude Speed Heading
2026-05-05 00:16 41.90724 -88.25301 760 ft 0 kts 263°
2026-05-05 00:27 41.90723 -88.25313 758 ft 1 kts 252°
2026-05-05 00:27 41.90701 -88.25322 759 ft 6 kts 159°
2026-05-05 00:27 41.90680 -88.25250 760 ft 8 kts 92°
2026-05-05 00:27 41.90680 -88.25160 760 ft 12 kts 75°
2026-05-05 00:28 41.90765 -88.25128 758 ft 16 kts 359°
2026-05-05 00:28 41.90883 -88.25128 758 ft 16 kts
2026-05-05 00:28 41.90995 -88.25127 761 ft 17 kts
2026-05-05 00:28 41.91106 -88.25126 759 ft 15 kts
2026-05-05 00:29 41.91204 -88.25110 759 ft 13 kts
2026-05-05 00:29 41.91300 -88.25095 757 ft 15 kts
2026-05-05 00:29 41.91403 -88.25079 760 ft 14 kts
2026-05-05 00:29 41.91438 -88.25006 761 ft 9 kts 97°
2026-05-05 00:30 41.91429 -88.24897 758 ft 12 kts 96°
2026-05-05 00:30 41.91418 -88.24766 761 ft 15 kts 95°
2026-05-05 00:30 41.91375 -88.24712 759 ft 8 kts 185°
2026-05-05 00:30 41.91184 -88.24764 761 ft 72 kts 193°
2026-05-05 00:31 41.90418 -88.25018 770 ft 145 kts 194°
2026-05-05 00:31 41.89408 -88.25384 1098 ft 154 kts 194°
2026-05-05 00:31 41.88401 -88.25709 1766 ft 137 kts 195°
2026-05-05 00:31 41.87563 -88.26044 2414 ft 125 kts 213°
2026-05-05 00:32 41.86913 -88.26938 2714 ft 146 kts 241°
2026-05-05 00:32 41.86698 -88.28408 3020 ft 180 kts 269°
2026-05-05 00:32 41.87086 -88.30132 3523 ft 207 kts 293°
2026-05-05 00:32 41.88152 -88.31583 4072 ft 238 kts 322°
2026-05-05 00:33 41.89822 -88.32164 4726 ft 264 kts 355°
2026-05-05 00:33 41.91624 -88.31788 5681 ft 269 kts
2026-05-05 00:33 41.93333 -88.30626 6447 ft 284 kts 31°
2026-05-05 00:33 41.94870 -88.28924 7304 ft 289 kts 36°
2026-05-05 00:34 41.96356 -88.27057 8192 ft 295 kts 39°
2026-05-05 00:34 41.97860 -88.25146 9119 ft 299 kts 37°
2026-05-05 00:34 41.99402 -88.23261 10010 ft 300 kts 37°
2026-05-05 00:34 42.00946 -88.21384 10853 ft 300 kts 37°
2026-05-05 00:35 42.02486 -88.19487 11689 ft 300 kts 37°
2026-05-05 00:35 42.04021 -88.17587 12530 ft 300 kts 37°
2026-05-05 00:35 42.05540 -88.15714 13356 ft 300 kts 37°
2026-05-05 00:35 42.07080 -88.13817 14097 ft 300 kts 37°
2026-05-05 00:36 42.08620 -88.11916 14802 ft 302 kts 37°
2026-05-05 00:36 42.10220 -88.09950 14987 ft 326 kts 37°
2026-05-05 00:36 42.11968 -88.07801 15002 ft 353 kts 37°
2026-05-05 00:36 42.13842 -88.05476 15007 ft 379 kts 38°
2026-05-05 00:37 42.15834 -88.02999 15014 ft 401 kts 38°
2026-05-05 00:37 42.17903 -88.00434 15013 ft 420 kts 38°
2026-05-05 00:37 42.20101 -87.97705 15003 ft 438 kts 39°
2026-05-05 00:37 42.22149 -87.94552 14977 ft 453 kts 51°
2026-05-05 00:38 42.23783 -87.90883 14979 ft 460 kts 60°
2026-05-05 00:38 42.25220 -87.86999 14995 ft 463 kts 61°
2026-05-05 00:38 42.26678 -87.83120 14991 ft 463 kts 60°
2026-05-05 00:38 42.28157 -87.79258 14955 ft 464 kts 60°
2026-05-05 00:39 42.29628 -87.75372 14956 ft 465 kts 61°
2026-05-05 00:39 42.31078 -87.71478 14960 ft 464 kts 61°
2026-05-05 00:39 42.32534 -87.67586 14962 ft 464 kts 61°
2026-05-05 00:39 42.33982 -87.63744 14962 ft 465 kts 60°
2026-05-05 00:40 42.35445 -87.59853 14963 ft 465 kts 61°
2026-05-05 00:40 42.36898 -87.55956 14966 ft 465 kts 61°
2026-05-05 00:40 42.38353 -87.52052 14971 ft 465 kts 61°
2026-05-05 00:40 42.39812 -87.48147 14975 ft 465 kts 61°
2026-05-05 00:41 42.41269 -87.44240 14981 ft 465 kts 61°
2026-05-05 00:41 42.42719 -87.40339 14981 ft 465 kts 61°
2026-05-05 00:41 42.44169 -87.36427 14988 ft 465 kts 61°
2026-05-05 00:41 42.45355 -87.32405 14963 ft 466 kts 70°
2026-05-05 00:42 42.46347 -87.28220 14983 ft 467 kts 70°
2026-05-05 00:42 42.47384 -87.24048 14994 ft 467 kts 69°
2026-05-05 00:42 42.48439 -87.19882 14993 ft 467 kts 70°
2026-05-05 00:42 42.49459 -87.15709 14995 ft 468 kts 70°
2026-05-05 00:43 42.50465 -87.11517 14997 ft 467 kts 70°
2026-05-05 00:43 42.51486 -87.07333 15000 ft 467 kts 70°
2026-05-05 00:43 42.52519 -87.03155 14994 ft 468 kts 70°
2026-05-05 00:43 42.53540 -86.98968 15002 ft 467 kts 70°
2026-05-05 00:44 42.54549 -86.94785 14999 ft 467 kts 70°
2026-05-05 00:44 42.55550 -86.90648 15003 ft 467 kts 70°
2026-05-05 00:44 42.56568 -86.86464 15000 ft 467 kts 70°
2026-05-05 00:44 42.57582 -86.82274 15012 ft 468 kts 70°
2026-05-05 00:45 42.58591 -86.78083 15014 ft 467 kts 70°
2026-05-05 00:45 42.59599 -86.73893 15013 ft 467 kts 70°
2026-05-05 00:45 42.60605 -86.69712 15015 ft 467 kts 70°
2026-05-05 00:45 42.61613 -86.65513 15014 ft 467 kts 70°
2026-05-05 00:46 42.62618 -86.61316 15018 ft 467 kts 70°
2026-05-05 00:46 42.63620 -86.57123 15012 ft 467 kts 70°
2026-05-05 00:46 42.64608 -86.52984 15012 ft 467 kts 70°
2026-05-05 00:46 42.65608 -86.48785 15014 ft 467 kts 70°
2026-05-05 00:47 42.66606 -86.44584 15015 ft 468 kts 70°
2026-05-05 00:47 42.67605 -86.40376 15017 ft 468 kts 71°
2026-05-05 00:47 42.68601 -86.36171 15013 ft 467 kts 71°
2026-05-05 00:47 42.69563 -86.32088 14548 ft 441 kts 70°
2026-05-05 00:48 42.70476 -86.28212 13985 ft 420 kts 70°
2026-05-05 00:48 42.71350 -86.24508 13430 ft 405 kts 70°
2026-05-05 00:48 42.72204 -86.20891 12878 ft 398 kts 70°
2026-05-05 00:48 42.73031 -86.17368 12364 ft 395 kts 70°
2026-05-05 00:49 42.73864 -86.13814 11846 ft 393 kts 70°
2026-05-05 00:49 42.74695 -86.10279 11335 ft 389 kts 70°
2026-05-05 00:49 42.75495 -86.06844 10828 ft 374 kts 71°
2026-05-05 00:49 42.76261 -86.03536 10339 ft 360 kts 70°
2026-05-05 00:50 42.77009 -86.00336 9875 ft 349 kts 70°
2026-05-05 00:50 42.77734 -85.97233 9419 ft 339 kts 70°
2026-05-05 00:50 42.78437 -85.94210 8966 ft 331 kts 71°
2026-05-05 00:50 42.79111 -85.91301 8536 ft 323 kts 71°
2026-05-05 00:51 42.79782 -85.88408 8111 ft 319 kts 71°
2026-05-05 00:51 42.80353 -85.85543 7865 ft 305 kts 82°
2026-05-05 00:51 42.80611 -85.82783 7925 ft 284 kts 79°
2026-05-05 00:51 42.81066 -85.80169 7491 ft 286 kts 75°
2026-05-05 00:52 42.81583 -85.77541 7036 ft 289 kts 74°
2026-05-05 00:52 42.82113 -85.74892 6597 ft 291 kts 75°
2026-05-05 00:52 42.82659 -85.72233 6167 ft 291 kts 75°
2026-05-05 00:52 42.83209 -85.69626 5744 ft 289 kts 74°
2026-05-05 00:53 42.83756 -85.67084 5291 ft 275 kts 74°
2026-05-05 00:53 42.84326 -85.64580 4822 ft 277 kts 74°
2026-05-05 00:53 42.84878 -85.62187 4380 ft 256 kts 75°
2026-05-05 00:53 42.85428 -85.59842 3918 ft 262 kts 75°
2026-05-05 00:54 42.85933 -85.57522 3349 ft 271 kts 79°
2026-05-05 00:54 42.86361 -85.55163 2820 ft 243 kts 83°
2026-05-05 00:54 42.86721 -85.52944 2240 ft 243 kts 84°
2026-05-05 00:54 42.87056 -85.50874 2042 ft 208 kts 84°
2026-05-05 00:55 42.87316 -85.49083 1866 ft 182 kts 88°
2026-05-05 00:55 42.87468 -85.47444 1717 ft 171 kts 91°
2026-05-05 00:55 42.87666 -85.45877 1569 ft 165 kts 72°
2026-05-05 00:55 42.88332 -85.44651 1667 ft 168 kts 43°
2026-05-05 00:56 42.89371 -85.43941 1847 ft 162 kts
2026-05-05 00:56 42.90436 -85.44167 1842 ft 158 kts 319°
2026-05-05 00:56 42.90995 -85.45266 1962 ft 132 kts 265°
2026-05-05 00:56 42.90746 -85.46301 1829 ft 121 kts 224°
2026-05-05 00:57 42.89992 -85.47002 1553 ft 132 kts 213°
2026-05-05 00:57 42.89216 -85.47567 1296 ft 127 kts 210°
2026-05-05 00:57 42.88610 -85.48365 1146 ft 123 kts 237°
2026-05-05 00:57 42.88281 -85.49455 1013 ft 126 kts 249°
2026-05-05 00:58 42.88071 -85.50650 816 ft 130 kts 256°
2026-05-05 00:58 42.87934 -85.51766 794 ft 121 kts 261°
2026-05-05 00:58 42.87840 -85.52645 800 ft 61 kts 263°
2026-05-05 00:58 42.87800 -85.52997 800 ft 27 kts 261°
2026-05-05 00:59 42.87781 -85.53252 793 ft 29 kts 278°
2026-05-05 00:59 42.87921 -85.53339 795 ft 21 kts 356°
2026-05-05 00:59 42.88016 -85.53441 795 ft 18 kts 294°
2026-05-05 00:59 42.88070 -85.53480 796 ft 2 kts 25°
2026-05-05 01:00 42.88075 -85.53461 796 ft 0 kts 91°